Weather History for Alpena, MI

Change the Weather History Date:

Thursday, February 13, 2014

  Actual Average Record
Temperature  
Mean Temperature 19 °F 20 °F  
Max Temperature 23 °F 29 °F 49 °F (1941)
Min Temperature 15 °F 11 °F -19 °F (1997)
Degree Days  
Heating Degree Days 46 45  
Month to date heating degree days 738 595  
Since 1 July heating degree days 5716 5077  
Moisture  
Dew Point 13 °F    
Average Humidity 78    
Maximum Humidity 88    
Minimum Humidity 68    
Precipitation  
Precipitation 0.01 in 0.04 in 0.69 in (1962)
Month to date precipitation 0.23 0.56  
Year to date precipitation 1.68 2.22  
Snow  
Snow 0.30 in 0.60 in 7.00 in (1962)
Month to date snowfall 3.5 8.3  
Since 1 July snowfall 46.0 56.9  
Snow Depth 14.00 in    
Sea Level Pressure  
Sea Level Pressure 29.87 in    
Wind  
Wind Speed 9 mph (SE)    
Max Wind Speed 20 mph    
Max Gust Speed 26 mph    
Visibility 10 miles    
Events Snow    
T = Trace of Precipitation, MM = Missing Value Source: NWS Daily Summary

Daily Weather History Graph

Daily Weather History Graph

Search for Another Location

Airport:

Trip Planner

Search our weather history database for the weather conditions in past years. The results will help you decide how hot, cold, wet, or windy it might be!

Date:

Astronomy

Feb. 13, 2014 Rise Set
Actual Time 7:38 AM EST 5:59 PM EST
Civil Twilight 7:07 AM EST 6:29 PM EST
Nautical Twilight 6:33 AM EST 7:04 PM EST
Astronomical Twilight 5:59 AM EST 7:38 PM EST
Moon 5:06 PM EST (2/13) 6:31 AM EST (2/13)
Length of Visible Light 11h 21m
Length of Day
10h 21m
Waxing Gibbous, 98% of the Moon is Illuminated
Feb 13
Waxing Gibbous
Feb 14
Full
Feb 22
Last Quarter
Mar 1
New
Mar 8
First Quarter

Hourly Weather History & Observations

Time (EST) Temp. Windchill Dew Point Humidity Pressure Visibility Wind Dir Wind Speed Gust Speed Precip Events Conditions
12:54 AM 15.1 °F 4.2 °F 10.0 °F 80% 30.09 in 10.0 mi South 8.1 mph - N/A   Overcast
1:54 AM 15.1 °F 6.4 °F 9.0 °F 77% 30.07 in 10.0 mi South 5.8 mph - N/A   Overcast
2:54 AM 16.0 °F 7.4 °F 10.0 °F 77% 30.06 in 10.0 mi SSW 5.8 mph - N/A   Overcast
3:54 AM 16.0 °F 5.3 °F 10.9 °F 81% 30.04 in 10.0 mi South 8.1 mph - N/A   Overcast
4:24 AM 16.0 °F - 10.9 °F 81% 29.99 in 9.0 mi Calm Calm - N/A   Overcast
4:54 AM 17.1 °F - 10.9 °F 77% 30.04 in 10.0 mi Calm Calm - N/A   Overcast
5:54 AM 16.0 °F 10.4 °F 12.0 °F 84% 30.05 in 6.0 mi SSE 3.5 mph - 0.00 in   Overcast
6:15 AM 16.0 °F 8.8 °F 12.0 °F 84% 30.01 in 8.0 mi SSE 4.6 mph - N/A   Overcast
6:54 AM 16.0 °F - 12.0 °F 84% 30.03 in 8.0 mi Calm Calm - N/A   Overcast
7:36 AM 16.0 °F 8.8 °F 12.0 °F 84% 29.97 in 10.0 mi South 4.6 mph - N/A   Overcast
7:54 AM 17.1 °F 11.7 °F 12.0 °F 81% 30.02 in 9.0 mi SSE 3.5 mph - N/A   Overcast
8:54 AM 18.0 °F - 12.0 °F 78% 30.00 in 10.0 mi Calm Calm - N/A   Overcast
9:54 AM 19.0 °F 11.1 °F 12.9 °F 77% 29.96 in 10.0 mi ESE 5.8 mph - N/A   Overcast
10:09 AM 19.9 °F 11.1 °F 12.0 °F 71% 29.91 in 10.0 mi ESE 6.9 mph - N/A   Overcast
10:54 AM 21.9 °F 10.4 °F 14.0 °F 72% 29.94 in 10.0 mi ESE 11.5 mph - N/A   Overcast
11:08 AM 23.0 °F 10.6 °F 16.0 °F 74% 29.89 in 10.0 mi SE 13.8 mph - N/A   Overcast
11:54 AM 23.0 °F 9.6 °F 15.1 °F 72% 29.91 in 10.0 mi ESE 16.1 mph 25.3 mph N/A   Overcast
12:54 PM 21.9 °F 8.7 °F 12.9 °F 68% 29.87 in 10.0 mi SE 15.0 mph 24.2 mph N/A   Overcast
1:54 PM 21.9 °F 8.7 °F 12.9 °F 68% 29.83 in 10.0 mi SE 15.0 mph 21.9 mph N/A   Overcast
2:54 PM 21.9 °F 9.8 °F 12.0 °F 66% 29.79 in 10.0 mi ESE 12.7 mph - N/A   Overcast
3:54 PM 21.9 °F 9.2 °F 12.0 °F 66% 29.75 in 10.0 mi SE 13.8 mph - N/A   Overcast
4:54 PM 21.9 °F 9.2 °F 12.0 °F 66% 29.74 in 10.0 mi SE 13.8 mph - N/A   Overcast
5:54 PM 21.9 °F 8.7 °F 14.0 °F 72% 29.69 in 10.0 mi ESE 15.0 mph 21.9 mph N/A   Overcast
6:54 PM 21.9 °F 9.8 °F 15.1 °F 75% 29.66 in 10.0 mi ESE 12.7 mph - N/A   Overcast
7:54 PM 21.9 °F 9.2 °F 15.1 °F 75% 29.65 in 10.0 mi SE 13.8 mph - N/A   Overcast
8:54 PM 21.9 °F 12.5 °F 16.0 °F 78% 29.63 in 10.0 mi SE 8.1 mph - N/A   Overcast
9:54 PM 21.9 °F 13.4 °F 16.0 °F 78% 29.61 in 10.0 mi SE 6.9 mph - N/A   Overcast
10:54 PM 23.0 °F 13.9 °F 16.0 °F 74% 29.58 in 10.0 mi ESE 8.1 mph - N/A   Overcast
11:54 PM 23.0 °F 15.8 °F 17.1 °F 78% 29.55 in 4.0 mi ESE 5.8 mph - 0.00 in Snow Light Snow